EDT,Max TemperatureF,Mean TemperatureF,Min TemperatureF,Max Dew PointF,MeanDew PointF,Min DewpointF,Max Humidity, Mean Humidity, Min Humidity, Max Sea Level PressureIn, Mean Sea Level PressureIn, Min Sea Level PressureIn, Max VisibilityMiles, Mean VisibilityMiles, Min VisibilityMiles, Max Wind SpeedMPH, Mean Wind SpeedMPH, Max Gust SpeedMPH,PrecipitationIn, CloudCover, Events, WindDirDegrees
2010-10-1,79,70,60,50,45,41,58,43,27,29.94,29.82,29.71,10,10,10,16,8,23,0.00,1,,355
2010-10-2,75,64,54,49,45,43,72,53,35,30.03,29.95,29.89,10,10,10,10,7,,0.00,1,,42
2010-10-3,70,62,54,50,46,40,72,60,48,30.09,29.98,29.91,10,10,9,17,8,24,0.00,5,Rain,12
2010-10-4,66,57,48,40,38,37,74,52,36,30.19,30.14,30.09,10,10,10,13,8,24,0.00,5,,8
2010-10-5,68,57,48,40,38,33,69,49,33,30.27,30.21,30.17,10,10,10,16,10,24,0.00,1,,359
2010-10-6,75,59,45,40,36,30,80,43,22,30.19,30.10,30.01,10,10,10,9,5,,0.00,0,,310
2010-10-7,81,63,46,50,43,36,83,49,26,30.09,30.04,29.96,10,10,10,10,3,,0.00,0,,277
2010-10-8,78,66,55,50,46,41,80,49,27,30.16,30.08,30.03,10,10,10,8,4,,0.00,0,,93
2010-10-9,82,68,53,52,47,42,83,54,24,30.09,30.05,30.00,10,10,10,5,1,,0.00,0,,47
2010-10-10,84,68,53,53,49,44,83,54,25,30.05,30.00,29.94,10,10,10,8,1,,0.00,0,,208
2010-10-11,86,70,55,54,50,41,80,53,20,29.98,29.94,29.88,10,10,10,13,3,,0.00,0,,241
2010-10-12,84,70,57,55,52,46,84,55,26,29.96,29.92,29.88,10,10,5,12,3,,0.00,1,,271
2010-10-13,80,69,59,60,52,48,87,59,34,30.00,29.95,29.92,10,10,10,8,3,,0.02,3,Rain,288
2010-10-14,75,66,57,56,45,30,86,52,23,29.97,29.92,29.87,10,10,9,16,6,29,0.00,3,Rain,360
2010-10-15,77,60,44,38,33,25,73,41,15,30.05,29.93,29.79,10,10,10,20,7,28,0.00,0,,303
2010-10-16,73,60,48,43,36,32,71,42,25,30.20,30.11,30.04,10,10,10,12,5,,0.00,0,,298
2010-10-17,78,63,48,43,38,32,77,45,19,30.17,30.10,30.03,10,10,10,8,2,,0.00,0,,261
2010-10-18,75,60,46,53,46,41,84,61,30,30.06,29.99,29.93,10,10,10,5,1,,0.00,0,,274
2010-10-19,81,66,53,52,46,41,90,55,25,29.95,29.90,29.86,10,10,10,9,2,,0.00,0,,235
2010-10-20,75,66,57,56,52,43,90,67,50,29.93,29.88,29.83,10,10,6,10,2,,0.09,3,Rain,65
2010-10-21,80,64,48,45,39,30,83,48,17,29.95,29.90,29.83,10,10,10,15,4,21,0.00,0,,267
2010-10-22,73,62,52,41,34,29,66,39,20,30.24,30.11,29.95,10,10,10,10,4,,0.00,0,,75
2010-10-23,75,59,45,46,40,36,80,50,26,30.33,30.28,30.24,10,10,9,9,2,,0.00,0,,178
2010-10-24,75,62,48,59,51,42,84,67,50,30.26,30.18,30.07,10,10,6,8,2,,0.00,2,Rain,190
2010-10-25,70,66,62,63,61,59,96,88,71,30.05,29.98,29.88,10,8,2,18,6,33,0.58,7,Rain-Thunderstorm,198
2010-10-26,81,72,64,70,66,62,100,88,62,29.93,29.88,29.78,10,7,1,20,8,29,0.71,7,Rain-Thunderstorm,190
2010-10-27,79,74,69,72,68,66,94,84,71,30.07,29.97,29.86,10,9,2,16,12,26,0.26,7,Rain,220
2010-10-28,79,69,55,67,59,35,94,73,33,30.07,30.03,29.96,10,9,6,15,7,21,0.00,4,,250
2010-10-29,72,60,50,39,31,19,54,38,14,30.21,30.14,30.06,10,10,10,12,7,,0.00,0,,18
2010-10-30,66,56,45,42,36,27,64,48,36,30.30,30.17,30.04,10,10,10,13,6,,0.00,0,,214
2010-10-31,73,60,48,42,39,34,74,49,24,30.07,30.02,29.96,10,10,10,14,7,20,0.00,0,,245